Volver al catálogo

COSMOS 1285 DEB

LostHEO
NORAD 33526·DEBRIS·🇷🇺 Russia

Lanzado Aug 4, 1981 desde Plesetsk Cosmodrome

Loading…

Próximos Pases (próximas 24 horas)

TLE

ObsoletoSource: Space-Track

Época: Sep 12, 2011, 21:29 UTC

1 33526U 81071AB  11255.89582722 -.00000077 +00000-0 +10000-3 0  9992
2 33526 066.9178 145.7376 5699344 113.0450 315.2411 01.98032254059774

Sigue COSMOS 1285 DEB en tiempo real con AllMySat

Download on the App Store